Regional Weather Roundup
Issued by NWS San Angelo, TX

Home | Current Version | Previous Version | Text Only | Print | Product List | Glossary On
Versions: 1 2 3 4 5 6 7 8 9 10 11 12 13 14 15 16 17 18 19 20 21 22 23 24 25 26 27 28 29 30 31 32 33 34 35 36 37 38 39 40 41 42 43 44 45 46 47 48 49 50
000
ASUS44 KSJT 290610
RWRSJT
WEST CENTRAL TEXAS REGIONAL WEATHER ROUNDUP
NATIONAL WEATHER SERVICE SAN ANGELO TX
100 AM CDT FRI AUG 29 2014

NOTE: "FAIR" INDICATES FEW OR NO CLOUDS BELOW 12,000 FEET WITH NO
SIGNIFICANT WEATHER AND/OR OBSTRUCTIONS TO VISIBILITY.

TXZ049-054-064>066-071>073-076>078-098-099-113-114-127-128-139-140-
154-155-168>170-290700
...LOCATIONS ACROSS WEST CENTRAL TEXAS...

CITY           SKY/WX    TMP DP  RH WIND       PRES   REMARKS
SAN ANGELO     CLOUDY    82  61  48 E12       29.90R
ABILENE        FAIR      73  69  87 N14       29.98R
DYESS AFB      LGT RAIN  71  68  90 N12G22    29.97R
JUNCTION       FAIR      81  68  64 S10       29.91F
SWEETWATER     MOCLDY    70  70 100 NE12      30.02F
BROWNWOOD      CLOUDY    82  68  61 SE13      29.93R
COLEMAN        CLOUDY    79  63  57 N14       29.95R
SONORA         FAIR      82  66  57 S12       29.95S
OZONA          FAIR      81  59  47 S7        29.93F
BRADY          CLEAR     79  68  69 SE8       29.92R
$$

TEXAS PANHANDLE/OKLAHOMA PANHANDLE

CITY           SKY/WX    TMP DP  RH WIND       PRES   REMARKS
AMARILLO       FAIR      65  61  87 E7        30.02S
BORGER         FAIR      68  60  75 SE8       30.01R
CANADIAN       FAIR      67  64  89 SW7       29.98R
DALHART        CLEAR     64  54  69 NE9       30.09R
DUMAS          FAIR      63  55  74 N12       30.06S
GUYMON         NOT AVBL
HEREFORD       FAIR      68  63  83 N5        30.03S
PAMPA          FAIR      62  59  90 SE12      30.02F
PERRYTON       FAIR      69  62  79 E10       30.02R
$$

SOUTHERN PANHANDLE/SOUTH PLAINS/ROLLING PLAINS

CITY           SKY/WX    TMP DP  RH WIND       PRES   REMARKS
LUBBOCK        FAIR      68  65  90 E12       29.98R
SNYDER         MOCLDY    71  66  84 E21       29.95F THUNDER
CHILDRESS      FAIR      67  65  93 SE5       29.97F
SEMINOLE       FAIR      72  62  69 CALM      29.97S
$$

PERMIAN BASIN

CITY           SKY/WX    TMP DP  RH WIND       PRES   REMARKS
MIDLAND        FAIR      77  64  64 E7        29.93R
ODESSA         FAIR      81  60  48 S8        29.94S
WINK           FAIR      82  61  48 S12       29.90F
$$

FAR WEST/SOUTHWEST MOUNTAINS/TRANS PECOS

CITY           SKY/WX    TMP DP  RH WIND       PRES   REMARKS
ALPINE         FAIR      73  57  57 SW8       30.11S
DRYDEN           N/A     83  60  45 E5        29.89S
EL PASO        CLEAR     80  48  32 CALM      30.01S
FORT STOCKTON  FAIR      74  65  73 S6        29.94F
GUADALUPE PASS CLEAR     74  38  27 E6        30.13S
MARFA          FAIR      63  57  82 N6        30.11F
PECOS          FAIR      74  65  72 CALM      29.90F
$$

DALLAS/FORT WORTH METROPLEX

CITY           SKY/WX    TMP DP  RH WIND       PRES   REMARKS
DFW AIRPORT    FAIR      82  70  66 SE9       29.90F
FTW MEACHAM    FAIR      84  69  60 SE16      29.89F
DAL-EXECUTIVE  FAIR      82  71  69 SE8       29.90F
GRAND PRAIRIE  FAIR      82  68  63 SE5       29.91F
ADDISON        FAIR      82  69  64 S8        29.92F
MESQUITE       FAIR      78  70  74 SE5       29.92F
LANCASTER      FAIR      78  69  73 SE5       29.92F
$$

NORTH CENTRAL TEXAS

CITY           SKY/WX    TMP DP  RH WIND       PRES   REMARKS
SHRMAN/DENISON CLOUDY    77  65  67 NW15G23   29.97R
GAINESVILLE    LGT RAIN  70  63  79 NW14G23   29.97S
BRIDGEPORT     LGT RAIN  70  65  84 NW12G17   29.99R
DENTON         CLOUDY    75  63  66 N21G26    29.94R
WAXAHACHIE     FAIR      78  69  73 SE5       29.92F
GRANBURY       FAIR      83  68  60 SE8       29.91F
$$

WESTERN NORTH TEXAS

CITY           SKY/WX    TMP DP  RH WIND       PRES   REMARKS
WICHITA FALLS  RAIN      69  66  90 S23       29.88F
VERNON         FAIR      70  65  85 N6        29.95R
BRECKENRIDGE   TSTM      71  69  94 E12       29.96F
COMANCHE         N/A     81  67  63 S6        29.93R
$$

CENTRAL AND SOUTH CENTRAL TEXAS

CITY           SKY/WX    TMP DP  RH WIND       PRES   REMARKS
AUSTIN/BERGSTM FAIR      77  71  82 SE6       29.91S
WACO           FAIR      80  70  71 SE9       29.91R
HILLSBORO      FAIR      80  69  69 SE8       29.92F
TEMPLE         FAIR      79  64  61 SE12      29.91R
KILLEEN-GRAY   PTCLDY    79  70  73 SE8       29.91F
FORT HOOD      FAIR      82  70  66 SE6       29.92R
GEORGETOWN     FAIR      79  72  78 SE6       29.93S
LAGO VISTA     FAIR      78  71  78 S5        29.94S
SAN MARCOS     FAIR      77  70  78 SE8       29.93S
NEW BRAUNFELS  FAIR      78  72  81 SE9       29.89F
RANDOLPH AFB   FAIR      78  72  82 SE6       29.91S
SAN ANTONIO    FAIR      80  73  79 SE9       29.91R
STINSON        FAIR      80  74  81 E9        29.88S
PLEASANTON     NOT AVBL
LA GRANGE      FAIR      80  75  86 SE5       29.89S
GIDDINGS       FAIR      77  71  82 SE3       29.95S
$$

EAST TEXAS

CITY           SKY/WX    TMP DP  RH WIND       PRES   REMARKS
PARIS          FAIR      75  66  73 SE6       29.93S
CLARKSVILLE    FAIR      78  69  73 CALM      29.93R
TYLER          FAIR      79  72  79 S6        29.93F
LONGVIEW       FAIR      79  71  76 S7        29.93F
PALESTINE      FAIR      77  73  86 SE3       29.94S
NACOGDOCHES    FAIR      75  72  88 SE5       29.95S
$$

TEXAS HILL COUNTRY AND EDWARDS PLATEAU

CITY           SKY/WX    TMP DP  RH WIND       PRES   REMARKS
LLANO          FAIR      81  70  69 SE6       29.94F
HORSESHOE BAY  FAIR      78  69  73 SE5       29.92S
KERRVILLE      MOCLDY    76  72  85 SE7       29.94S
FREDERICKSBRG  FAIR      76  69  79 SE7       29.94F
ROCKSPRINGS    FAIR      79  68  69 SE15      29.96F
HONDO            N/A    N/A N/A N/A MISG      29.92R
UVALDE         FAIR      82  70  67 SE10      29.89S
DEL RIO        FAIR      87  68  52 SE15G23   29.85R
$$

SOUTHEAST TEXAS

CITY           SKY/WX    TMP DP  RH WIND       PRES   REMARKS
COLLEGE STN    FAIR      77  71  82 SE6       29.91F
CALDWELL       FAIR      75  72  88 CALM      29.94S
CROCKETT       FAIR      79  77  94 SE5       29.95F
BRENHAM        FAIR      77  74  88 CALM      29.92S
HUNTSVILLE     FAIR      78  73  84 CALM      29.93S
CONROE         FAIR      75  73  93 CALM      29.93S
HOUSTON BUSH   PTCLDY    79  75  89 E5        29.91S
HOUSTON HOBBY  FAIR      80  75  84 E3        29.89S
PERLAND        FAIR      81  76  84 SE8       29.90F
WHARTON        FAIR      76  74  94 CALM      29.90S
$$

THE UPPER TEXAS COAST

CITY           SKY/WX    TMP DP  RH WIND       PRES   REMARKS
ORANGE         FAIR      81  76  86 E8        29.93S
PORT ARTHUR    FAIR      82  75  79 E9        29.91S
GALVESTON      FAIR      83  76  79 SE14      29.91S
ANGLETON       FAIR      78  76  93 E6        29.89F
BAY CITY       FAIR      79  79 100 E3        29.88F
$$

TEXAS COASTAL BEND, RIO GRANDE PLAINS DEEP SOUTH TEXAS

CITY           SKY/WX    TMP DP  RH WIND       PRES   REMARKS
VICTORIA       FAIR      79  76  90 NE5       29.89S
BEEVILLE       FAIR      78  76  92 E5        29.87S
ROCKPORT       CLOUDY    84  78  82 SE15      29.86S
PORT ARANSAS   CLOUDY    83  78  83 E13       29.85F
PORT LAVACA    NOT AVBL
CORPUS CHRISTI LGT RAIN  83  77  82 E12       29.85S
KINGSVILLE NAS FAIR      81  78  91 E10       29.84F
COTULLA        FAIR      82  71  69 SE15      29.86S
LAREDO         FAIR      82  74  77 E12       29.87F HAZE
BROWNSVILLE    FAIR      82  78  88 S8        29.82S
PORT ISABEL    MOCLDY    86  75  69 S10       29.82S
HEBBRONVILLE   FAIR      79  74  85 E9        29.86F
MCALLEN        FAIR      82  77  84 CALM      29.82S
WESLACO        FAIR      82  73  75 SE5       29.81F
FALFURRIAS     FAIR      76  69  81 NE3       29.83F
EDINBURG       FAIR      82  75  77 CALM      29.82S
$$



USA.gov is the U.S. government's official web portal to all federal, state and local government web resources and services.